When you browse on this site, cookies collect data to enhance your experience and personalize the content and advertising you see.
Visit our Privacy Policy to learn more. By continuing to use the site, you agree to this use of cookies and data.
  • Em Portugal
  • Lista de países
  • Para 7 dias
  • Temperatura da água
  • Mapas de satélite
  • Mapa do tempo
  • Widgets de tempo
  • user-avatar
    Iniciar Sessão

    Previsão horária em Aleksandrovka

    Hoje, 27 Maio, Segunda-feira

    Tempo Temperatura Precipitação Vento Pressão Humidade
    00:00 +16°C° 0 mm 3 m/s 746 mmHg 92%
    01:00 +14°C° 0 mm 3 m/s 746 mmHg 92%
    02:00 +14°C° 0 mm 3 m/s 746 mmHg 92%
    03:00 +15°C° 0 mm 2 m/s 747 mmHg 91%
    04:00 +15°C° 0 mm 2 m/s 747 mmHg 91%
    05:00 +16°C° 0 mm 2 m/s 748 mmHg 90%
    06:00 +17°C° 0 mm 2 m/s 748 mmHg 83%
    07:00 +19°C° 0 mm 3 m/s 749 mmHg 75%
    08:00 +21°C° 0 mm 3 m/s 749 mmHg 68%
    09:00 +22°C° 0 mm 3 m/s 749 mmHg 63%
    10:00 +23°C° 0 mm 4 m/s 749 mmHg 58%
    11:00 +25°C° 0 mm 4 m/s 749 mmHg 53%
    12:00 +25°C° 0 mm 4 m/s 749 mmHg 52%
    13:00 +25°C° 0 mm 4 m/s 749 mmHg 51%
    14:00 +26°C° 0 mm 4 m/s 750 mmHg 50%
    15:00 +26°C° 0 mm 3 m/s 750 mmHg 53%
    16:00 +25°C° 0 mm 3 m/s 750 mmHg 55%
    17:00 +25°C° 0 mm 3 m/s 750 mmHg 58%
    18:00 +23°C° 0 mm 2 m/s 750 mmHg 62%
    19:00 +22°C° 0 mm 1 m/s 750 mmHg 67%
    20:00 +18°C° 0 mm 0 m/s 750 mmHg 72%
    21:00 +19°C° 0 mm 1 m/s 750 mmHg 73%
    22:00 +19°C° 0 mm 1 m/s 751 mmHg 74%
    23:00 +19°C° 0 mm 1 m/s 751 mmHg 75%

    Amanhã, 28 Maio, Terça-feira

    Tempo Temperatura Precipitação Vento Pressão Humidade
    00:00 +18°C° 0 mm 1 m/s 751 mmHg 75%
    01:00 +18°C° 0 mm 1 m/s 751 mmHg 76%
    02:00 +18°C° 0 mm 1 m/s 751 mmHg 77%
    03:00 +18°C° 0 mm 1 m/s 751 mmHg 78%
    04:00 +18°C° 0 mm 1 m/s 751 mmHg 79%
    05:00 +17°C° 0 mm 2 m/s 752 mmHg 79%
    06:00 +19°C° 0 mm 2 m/s 752 mmHg 73%
    07:00 +21°C° 0 mm 2 m/s 752 mmHg 67%
    08:00 +24°C° 0 mm 2 m/s 752 mmHg 61%
    09:00 +25°C° 0 mm 2 m/s 752 mmHg 57%
    10:00 +26°C° 0 mm 2 m/s 752 mmHg 54%
    11:00 +27°C° 0 mm 2 m/s 752 mmHg 50%
    12:00 +28°C° 0 mm 2 m/s 752 mmHg 49%
    13:00 +28°C° 0 mm 2 m/s 752 mmHg 47%
    14:00 +28°C° 0 mm 2 m/s 752 mmHg 46%
    15:00 +28°C° 0 mm 2 m/s 751 mmHg 48%
    16:00 +28°C° 0 mm 2 m/s 751 mmHg 51%
    17:00 +28°C° 0 mm 2 m/s 751 mmHg 54%
    18:00 +26°C° 0 mm 2 m/s 751 mmHg 58%
    19:00 +24°C° 0 mm 2 m/s 751 mmHg 62%
    20:00 +21°C° 0 mm 2 m/s 751 mmHg 66%
    21:00 +20°C° 0 mm 2 m/s 751 mmHg 70%
    22:00 +20°C° 0 mm 2 m/s 751 mmHg 73%
    23:00 +19°C° 0 mm 2 m/s 751 mmHg 77%

    Depois de amanhã, 29 Maio, Quarta-feira

    Tempo Temperatura Precipitação Vento Pressão Humidade
    00:00 +18°C° 0 mm 2 m/s 751 mmHg 78%
    01:00 +19°C° 0 mm 1 m/s 751 mmHg 78%
    02:00 +18°C° 0 mm 1 m/s 751 mmHg 79%
    03:00 +19°C° 0 mm 1 m/s 751 mmHg 80%
    04:00 +18°C° 0 mm 2 m/s 751 mmHg 81%
    05:00 +18°C° 0 mm 2 m/s 752 mmHg 81%
    06:00 +20°C° 0 mm 3 m/s 752 mmHg 75%
    07:00 +22°C° 0 mm 3 m/s 752 mmHg 69%
    08:00 +25°C° 0 mm 4 m/s 752 mmHg 63%
    09:00 +26°C° 0 mm 4 m/s 752 mmHg 60%
    10:00 +27°C° 0 mm 5 m/s 752 mmHg 57%
    11:00 +28°C° 0 mm 5 m/s 751 mmHg 54%
    12:00 +28°C° 0 mm 5 m/s 751 mmHg 53%
    13:00 +29°C° 0 mm 5 m/s 751 mmHg 53%
    14:00 +29°C° 0 mm 4 m/s 751 mmHg 52%
    15:00 +29°C° 0 mm 4 m/s 751 mmHg 55%
    16:00 +29°C° 0 mm 4 m/s 751 mmHg 58%
    17:00 +28°C° 0 mm 3 m/s 750 mmHg 61%
    18:00 +26°C° 0 mm 3 m/s 750 mmHg 67%
    19:00 +25°C° 0 mm 3 m/s 750 mmHg 72%
    20:00 +22°C° 0 mm 3 m/s 750 mmHg 77%
    21:00 +21°C° 0 mm 3 m/s 751 mmHg 79%
    22:00 +20°C° 0 mm 3 m/s 751 mmHg 80%
    23:00 +20°C° 0 mm 3 m/s 751 mmHg 82%

    30 Maio, Quinta-feira

    Tempo Temperatura Precipitação Vento Pressão Humidade
    00:00 +19°C° 0 mm 3 m/s 751 mmHg 83%
    01:00 +19°C° 0 mm 3 m/s 751 mmHg 84%
    02:00 +19°C° 0 mm 3 m/s 751 mmHg 85%
    03:00 +19°C° 0 mm 3 m/s 751 mmHg 84%
    04:00 +19°C° 0 mm 3 m/s 751 mmHg 83%
    05:00 +19°C° 0 mm 3 m/s 751 mmHg 82%
    06:00 +21°C° 0 mm 3 m/s 751 mmHg 76%
    07:00 +23°C° 0 mm 4 m/s 751 mmHg 69%
    08:00 +26°C° 0 mm 5 m/s 751 mmHg 63%
    09:00 +27°C° 0 mm 5 m/s 751 mmHg 58%
    10:00 +28°C° 0 mm 5 m/s 751 mmHg 54%
    11:00 +29°C° 0 mm 5 m/s 751 mmHg 50%
    12:00 +30°C° 0 mm 5 m/s 751 mmHg 49%
    13:00 +30°C° 0 mm 4 m/s 750 mmHg 48%
    14:00 +30°C° 0 mm 4 m/s 750 mmHg 47%
    15:00 +30°C° 0 mm 4 m/s 750 mmHg 50%
    16:00 +30°C° 0 mm 3 m/s 750 mmHg 54%
    17:00 +30°C° 0 mm 3 m/s 750 mmHg 57%
    18:00 +28°C° 0 mm 3 m/s 750 mmHg 61%
    19:00 +26°C° 0 mm 3 m/s 750 mmHg 66%
    20:00 +24°C° 0 mm 3 m/s 750 mmHg 70%
    21:00 +22°C° 0 mm 3 m/s 750 mmHg 71%
    22:00 +21°C° 0 mm 3 m/s 750 mmHg 73%
    23:00 +20°C° 0 mm 3 m/s 750 mmHg 74%

    31 Maio, Sexta-feira

    Tempo Temperatura Precipitação Vento Pressão Humidade
    00:00 +20°C° 0 mm 2 m/s 750 mmHg 75%
    01:00 +20°C° 0 mm 2 m/s 750 mmHg 76%
    02:00 +19°C° 0 mm 2 m/s 750 mmHg 78%
    03:00 +19°C° 0 mm 2 m/s 750 mmHg 78%
    04:00 +19°C° 0 mm 3 m/s 750 mmHg 79%
    05:00 +19°C° 0 mm 3 m/s 750 mmHg 79%
    06:00 +21°C° 0 mm 3 m/s 750 mmHg 74%
    07:00 +23°C° 0 mm 4 m/s 750 mmHg 68%
    08:00 +26°C° 0 mm 4 m/s 750 mmHg 63%
    09:00 +27°C° 0 mm 4 m/s 749 mmHg 57%
    10:00 +29°C° 0 mm 4 m/s 749 mmHg 51%
    11:00 +30°C° 0 mm 4 m/s 749 mmHg 46%
    12:00 +30°C° 0 mm 4 m/s 749 mmHg 45%
    13:00 +32°C° 0 mm 4 m/s 749 mmHg 44%
    14:00 +32°C° 0 mm 4 m/s 748 mmHg 43%
    15:00 +32°C° 0 mm 4 m/s 748 mmHg 48%
    16:00 +30°C° 0 mm 3 m/s 748 mmHg 53%
    17:00 +30°C° 0 mm 3 m/s 748 mmHg 58%
    18:00 +28°C° 0 mm 3 m/s 748 mmHg 61%
    19:00 +26°C° 0 mm 3 m/s 748 mmHg 64%
    20:00 +25°C° 0 mm 3 m/s 748 mmHg 67%
    21:00 +24°C° 0 mm 3 m/s 748 mmHg 68%
    22:00 +22°C° 0 mm 3 m/s 747 mmHg 68%
    23:00 +22°C° 0 mm 3 m/s 747 mmHg 69%

    1 Junho, Sábado

    Tempo Temperatura Precipitação Vento Pressão Humidade
    00:00 +21°C° 0 mm 3 m/s 747 mmHg 70%
    01:00 +21°C° 0 mm 3 m/s 747 mmHg 71%
    02:00 +20°C° 0 mm 3 m/s 746 mmHg 73%
    03:00 +20°C° 0 mm 3 m/s 746 mmHg 74%
    04:00 +20°C° 0 mm 3 m/s 746 mmHg 76%
    05:00 +20°C° 0 mm 3 m/s 746 mmHg 78%
    06:00 +22°C° 0 mm 4 m/s 746 mmHg 73%
    07:00 +25°C° 0 mm 4 m/s 746 mmHg 67%
    08:00 +27°C° 0 mm 4 m/s 746 mmHg 62%
    09:00 +29°C° 0 mm 5 m/s 746 mmHg 55%
    10:00 +30°C° 0 mm 6 m/s 746 mmHg 49%
    11:00 +33°C° 0 mm 6 m/s 746 mmHg 42%
    12:00 +33°C° 0 mm 6 m/s 746 mmHg 41%
    13:00 +33°C° 0 mm 6 m/s 745 mmHg 40%
    14:00 +33°C° 0 mm 7 m/s 745 mmHg 39%
    15:00 +33°C° 0 mm 5 m/s 745 mmHg 44%
    16:00 +32°C° 0 mm 4 m/s 745 mmHg 50%
    17:00 +31°C° 0 mm 3 m/s 745 mmHg 56%
    18:00 +29°C° 0 mm 3 m/s 745 mmHg 58%
    19:00 +27°C° 0 mm 3 m/s 745 mmHg 60%
    20:00 +24°C° 0 mm 3 m/s 745 mmHg 63%
    21:00 +24°C° 0 mm 2 m/s 745 mmHg 63%
    22:00 +23°C° 0 mm 2 m/s 745 mmHg 63%
    23:00 +23°C° 0 mm 2 m/s 745 mmHg 64%
    Mostrar mais